Content
SEND FEEDBACK

Daily
Averages
Monthly
Summary
United States of America

JAMESTOWN, NEW YORK


Home > North America > United States > New York
Elevation: 1725 feet     Latitude: 42 09N     Longitude: 079 15W

WEATHER
 
SELECT A DAY
Number of Records: 355,292;   Date Range: 1/1/95 - 12/16/14
 
SHARE

PRINT THIS DATA

[ ← Previous Day ]
WEATHER ALMANAC - JUNE 24, 2013
[ Next Day → ]
[ °C ]   °F
We're sorry. There is no daily almanac available for Jamestown, New York on June 24, 2013.
WEATHER BY HOUR - JUNE 24, 2013
[ °C ]   °F
Local TimeTemperatureDewpointHumidityBarometerVisibilityWind DirectionWind SpeedGust SpeedPrecipitationEventsConditions
12:35 AM71.6 °F64.4 °F78 %30.14 in10.0 miSSW (210°)5.8 mphMostly Cloudy
12:55 AM71.6 °F64.4 °F78 %30.14 in10.0 miSSW (200°)4.6 mphMostly Cloudy
1:15 AM71.6 °F64.4 °F78 %30.14 in10.0 miSSW (200°)5.8 mphMostly Cloudy
1:35 AM71.6 °F62.6 °F73 %30.13 in10.0 miSW (220°)5.8 mphScattered Clouds
1:55 AM71.6 °F62.6 °F73 %30.13 in10.0 miSW (220°)8.1 mphPartly Cloudy
2:15 AM71.6 °F62.6 °F73 %30.12 in10.0 miSSW (210°)6.9 mphClear
2:35 AM71.6 °F62.6 °F73 %30.12 in10.0 miSSW (210°)5.8 mphClear
2:55 AM71.6 °F62.6 °F73 %30.12 in10.0 miSW (220°)6.9 mphClear
3:15 AM71.6 °F62.6 °F73 %30.13 in10.0 miSSW (210°)5.8 mphClear
3:35 AM69.8 °F62.6 °F78 %30.13 in10.0 miSW (230°)8.1 mphPartly Cloudy
3:55 AM69.8 °F62.6 °F78 %30.13 in10.0 miSW (230°)6.9 mphClear
4:15 AM69.8 °F62.6 °F78 %30.12 in10.0 miSW (230°)6.9 mphClear
4:35 AM69.8 °F62.6 °F78 %30.13 in10.0 miSW (230°)6.9 mphClear
4:55 AM69.8 °F62.6 °F78 %30.12 in10.0 miWSW (240°)6.9 mphClear
5:15 AM68.0 °F62.6 °F83 %30.13 in10.0 miSW (220°)8.1 mphClear
5:35 AM68.0 °F62.6 °F83 %30.13 in10.0 miWSW (240°)6.9 mphClear
5:55 AM66.2 °F62.6 °F88 %30.14 in10.0 miSW (230°)6.9 mphPartly Cloudy
6:15 AM68.0 °F62.6 °F83 %30.14 in10.0 miSW (220°)6.9 mphPartly Cloudy
6:35 AM68.0 °F62.6 °F83 %30.14 in10.0 miSSW (210°)6.9 mphPartly Cloudy
6:55 AM68.0 °F62.6 °F83 %30.15 in10.0 miWSW (240°)5.8 mphClear
7:15 AM68.0 °F62.6 °F83 %30.15 in10.0 miSSW (210°)3.5 mphClear
7:35 AM68.0 °F62.6 °F83 %30.15 in10.0 miCalmPartly Cloudy
7:55 AM69.8 °F62.6 °F78 %30.15 in10.0 miSW (230°)3.5 mphScattered Clouds
8:15 AM71.6 °F62.6 °F73 %30.15 in10.0 miSW (230°)4.6 mphPartly Cloudy
8:35 AM71.6 °F64.4 °F78 %30.15 in10.0 miSW (220°)6.9 mphClear
8:55 AM73.4 °F64.4 °F73 %30.15 in10.0 miSSW (200°)5.8 mphClear
9:15 AM73.4 °F62.6 °F69 %30.15 in10.0 miSW (220°)5.8 mphClear
9:35 AM73.4 °F64.4 °F73 %30.15 in10.0 miSW (230°)8.1 mphClear
9:55 AM75.2 °F62.6 °F65 %30.15 in10.0 miWSW (240°)6.9 mphClear
10:15 AM75.2 °F64.4 °F69 %30.15 in10.0 miSW (230°)4.6 mphClear
10:35 AM75.2 °F64.4 °F69 %30.15 in10.0 miSW (220°)5.8 mphClear
10:55 AM77.0 °F64.4 °F65 %30.15 in10.0 miWSW (240°)9.2 mphClear
11:15 AM78.8 °F66.2 °F65 %30.15 in10.0 miSSW (210°)6.9 mphClear
11:35 AM78.8 °F64.4 °F61 %30.15 in9.0 miWSW (250°)8.1 mphClear
11:55 AM78.8 °F64.4 °F61 %30.15 in10.0 miWSW (250°)10.4 mphClear
12:15 PM78.8 °F62.6 °F57 %30.15 in10.0 miSSW (200°)9.2 mph16.1 mphClear
12:35 PM80.6 °F64.4 °F58 %30.15 in10.0 miWSW (240°)11.5 mphClear
12:55 PM80.6 °F62.6 °F54 %30.15 in10.0 miWest (260°)12.7 mph17.3 mphClear
1:15 PM80.6 °F62.6 °F54 %30.15 in10.0 miWest (280°)9.2 mphClear
1:35 PM80.6 °F62.6 °F54 %30.15 in10.0 miWest (270°)13.8 mphClear
1:55 PM80.6 °F64.4 °F58 %30.13 in10.0 miWest (260°)10.4 mph18.4 mphPartly Cloudy
2:15 PM82.4 °F62.6 °F51 %30.13 in10.0 miWest (270°)10.4 mphPartly Cloudy
2:35 PM80.6 °F66.2 °F61 %30.11 in10.0 miWest (270°)9.2 mphPartly Cloudy
2:55 PM80.6 °F64.4 °F58 %30.10 in10.0 miWNW (290°)11.5 mphPartly Cloudy
3:15 PM80.6 °F64.4 °F58 %30.09 in10.0 miWest (270°)10.4 mph18.4 mphClear
3:35 PM80.6 °F64.4 °F58 %30.09 in10.0 miWNW (290°)12.7 mphPartly Cloudy
3:55 PM82.4 °F62.6 °F51 %30.08 in10.0 miWest (260°)6.9 mph18.4 mphClear
4:15 PM80.6 °F64.4 °F58 %30.07 in10.0 miWest (260°)9.2 mphScattered Clouds
4:35 PM80.6 °F64.4 °F58 %30.06 in10.0 miWest (270°)8.1 mphPartly Cloudy
4:55 PM80.6 °F66.2 °F61 %30.05 in10.0 miNW (320°)5.8 mphPartly Cloudy
5:15 PM80.6 °F66.2 °F61 %30.05 in10.0 miNW (320°)8.1 mphClear
5:35 PM80.6 °F66.2 °F61 %30.05 in10.0 miNW (310°)6.9 mphClear
5:55 PM80.6 °F66.2 °F61 %30.05 in10.0 miNW (320°)8.1 mphClear
6:15 PM78.8 °F66.2 °F65 %30.05 in10.0 miNNW (330°)8.1 mphClear
6:35 PM78.8 °F66.2 °F65 %30.05 in10.0 miNNW (330°)6.9 mphClear
6:55 PM78.8 °F66.2 °F65 %30.04 in10.0 miNW (320°)3.5 mphClear
7:15 PM78.8 °F64.4 °F61 %30.04 in10.0 miNNW (330°)3.5 mphClear
7:35 PM78.8 °F66.2 °F65 %30.04 in10.0 miWNW (300°)5.8 mphClear
7:55 PM78.8 °F66.2 °F65 %30.04 in10.0 miCalmClear
8:15 PM77.0 °F66.2 °F69 %30.05 in10.0 miNorth (350°)5.8 mphClear
8:35 PM75.2 °F64.4 °F69 %30.05 in10.0 miNNW (340°)4.6 mphClear
8:55 PM73.4 °F64.4 °F73 %30.05 in10.0 miNW (320°)3.5 mphClear
9:15 PM73.4 °F64.4 °F73 %30.06 in10.0 miCalmPartly Cloudy
9:35 PM71.6 °F64.4 °F78 %30.06 in10.0 miCalmPartly Cloudy
9:55 PM71.6 °F64.4 °F78 %30.06 in9.0 miCalmClear
10:15 PM71.6 °F64.4 °F78 %30.06 in10.0 miCalmClear
10:35 PM71.6 °F62.6 °F73 %30.07 in10.0 miCalmClear
10:55 PM69.8 °F62.6 °F78 %30.06 in10.0 miSouth (170°)3.5 mphClear
11:15 PM69.8 °F64.4 °F83 %30.05 in10.0 miSSE (160°)3.5 mphClear
11:35 PM69.8 °F64.4 °F83 %30.06 in10.0 miSouth (190°)4.6 mphClear
11:55 PM68.0 °F64.4 °F88 %30.06 in10.0 miSouth (190°)3.5 mphClear
Hourly data recorded from KJHW, located miles away from Jamestown, New York







STORIES FROM OUR PARTNERS